Location: Clarion
(42.7316°N, 93.7330°W)
Time: 09:15:43
(UTC+00:00)

NOSS 2-1 (D) - Pass Details

Date: 22 April 2026
Orbit: 373 x 1667 km, 63.3° (Epoch: 17 May)

Event Time Altitude Azimuth Distance (km) Brightness Sun altitude
Rises 03:03:00 0° 315° (NW) 2,455 8.3 -19.9°
Reaches altitude 10° 03:04:58 10° 306° (NW) 1,685 7.0 -20.2°
Maximum altitude 03:08:24 37° 237° (WSW) 910 4.5 -20.7°
Enters shadow 03:09:56 28° 196° (SSW) 1,179 4.7 -20.9°
